Tracking 33850 objects as of 19-Apr-2026
HD Live streaming from Space Station
objects crossing your sky now

CZ-3B R/B

Track CZ-3B R/B now!
10-day predictions


NORAD ID: 59916
Int'l Code: 2024-104B
Perigee: 200.1 km
Apogee: 26,021.0 km
Inclination: 26.6 °
Period: 451.0 minutes
Semi major axis: 19481 km
RCS: Unknown
Launch date: May 30, 2024
Source: People's Republic of China (PRC)
Launch site: Xichang Space Center, China (XSC)

Note: This is a ROCKET BODY
Your satellite tracking list
Your tracking list is empty




NASA's NSSDC Master Catalog

Two Line Element Set (TLE):
1 59916U 24104B   26108.67946759  .00031422 -38293-6  12423-2 0  9999
2 59916  26.5963  96.2420 6627033  14.3773 357.7439  3.19277405 19510
Source of the keplerian elements: AFSPC